Weather History for Michigan City, IN

Change the Weather History Date:

Tuesday, March 19, 2013

  Actual Average (KVPZ) Record (KVPZ)
Temperature  
Mean Temperature 27 °F 39 °F  
Max Temperature 33 °F 48 °F 78 °F (1921)
Min Temperature 21 °F 30 °F 4 °F (1934)
Degree Days  
Heating Degree Days 38 26  
Month to date heating degree days 560  
Since 1 July heating degree days 5292  
Cooling Degree Days 0 0  
Month to date cooling degree days 0  
Year to date cooling degree days 0  
Moisture  
Dew Point 14 °F    
Average Humidity 58    
Maximum Humidity 74    
Minimum Humidity 41    
Precipitation  
Precipitation 0.00 in 0.07 in 2.05 in (1898)
Month to date precipitation 1.41  
Year to date precipitation 4.58  
Sea Level Pressure  
Sea Level Pressure 29.92 in    
Wind  
Wind Speed 16 mph (West)    
Max Wind Speed 23 mph    
Max Gust Speed 37 mph    
Visibility 10 miles    
Events Snow    
T = Trace of Precipitation, MM = Missing Value Source: NWS Daily Summary

Daily Weather History Graph

Daily Weather History Graph

Search for Another Location

Airport:

Trip Planner

Search our weather history database for the weather conditions in past years. The results will help you decide how hot, cold, wet, or windy it might be!

Date:

Astronomy

Mar. 19, 2013 Rise Set
Actual Time 6:51 AM CDT 6:58 PM CDT
Civil Twilight 6:24 AM CDT 7:26 PM CDT
Nautical Twilight 5:51 AM CDT 7:58 PM CDT
Astronomical Twilight 5:18 AM CDT 8:32 PM CDT
Moon 11:37 AM CDT (3/19) 1:49 AM CDT (3/19)
Length of Visible Light 13h 02m
Length of Day
12h 06m
Waxing Crescent, 50% of the Moon is Illuminated
Mar 19
Waxing Crescent
Mar 19
First Quarter
Mar 27
Full
Apr 2
Last Quarter
Apr 10
New

Hourly Weather History & Observations

Time (CDT) Temp. Windchill Dew Point Humidity Pressure Visibility Wind Dir Wind Speed Gust Speed Precip Events Conditions
12:15 AM 24.8 °F 11.5 °F 15.8 °F 69% 29.79 in 10.0 mi West 17.3 mph 27.6 mph N/A Snow Light Snow
12:35 AM 24.8 °F 11.1 °F 14.0 °F 64% 29.79 in 10.0 mi West 18.4 mph 27.6 mph N/A Snow Light Snow
12:55 AM 23.0 °F 8.7 °F 12.2 °F 63% 29.79 in 10.0 mi West 18.4 mph 27.6 mph N/A   Overcast
1:15 AM 23.0 °F 10.1 °F 14.0 °F 68% 29.79 in 10.0 mi West 15.0 mph 29.9 mph N/A   Overcast
1:35 AM 23.0 °F 11.1 °F 14.0 °F 68% 29.79 in 10.0 mi West 12.7 mph 24.2 mph N/A   Overcast
1:55 AM 23.0 °F 10.6 °F 14.0 °F 68% 29.79 in 10.0 mi West 13.8 mph 21.9 mph N/A   Overcast
2:15 AM 23.0 °F 9.6 °F 14.0 °F 68% 29.80 in 10.0 mi WSW 16.1 mph 26.5 mph N/A   Overcast
2:55 AM 23.0 °F 10.6 °F 14.0 °F 68% 29.80 in 10.0 mi West 13.8 mph 25.3 mph N/A   Overcast
3:15 AM 23.0 °F 10.6 °F 14.0 °F 68% 29.79 in 10.0 mi West 13.8 mph 20.7 mph N/A Snow Light Snow
3:35 AM 23.0 °F 11.1 °F 12.2 °F 63% 29.79 in 10.0 mi West 12.7 mph 24.2 mph N/A   Overcast
3:55 AM 23.0 °F 10.1 °F 14.0 °F 68% 29.80 in 10.0 mi WSW 15.0 mph 23.0 mph N/A Snow Light Snow
4:15 AM 23.0 °F 8.7 °F 14.0 °F 68% 29.81 in 7.0 mi West 18.4 mph 26.5 mph N/A Snow Light Snow
4:35 AM 21.2 °F 7.3 °F 14.0 °F 74% 29.82 in 7.0 mi WSW 16.1 mph 26.5 mph N/A Snow Light Snow
4:55 AM 21.2 °F 6.4 °F 14.0 °F 74% 29.82 in 10.0 mi WSW 18.4 mph 24.2 mph N/A Snow Light Snow
5:15 AM 21.2 °F 7.8 °F 12.2 °F 68% 29.82 in 10.0 mi WSW 15.0 mph 25.3 mph N/A Snow Light Snow
5:35 AM 21.2 °F 8.9 °F 14.0 °F 74% 29.83 in 10.0 mi SW 12.7 mph 21.9 mph N/A Snow Light Snow
5:55 AM 21.2 °F 8.3 °F 14.0 °F 74% 29.83 in 10.0 mi WSW 13.8 mph 18.4 mph N/A Snow Light Snow
6:15 AM 21.2 °F 7.8 °F 12.2 °F 68% 29.83 in 10.0 mi West 15.0 mph 20.7 mph N/A Snow Light Snow
6:35 AM 21.2 °F 6.8 °F 12.2 °F 68% 29.84 in 10.0 mi WSW 17.3 mph 26.5 mph N/A Snow Light Snow
6:55 AM 21.2 °F 8.3 °F 12.2 °F 68% 29.85 in 7.0 mi WSW 13.8 mph 20.7 mph N/A Snow Light Snow
7:15 AM 21.2 °F 7.8 °F 12.2 °F 68% 29.85 in 5.0 mi West 15.0 mph 23.0 mph N/A Snow Light Snow
7:35 AM 21.2 °F 7.8 °F 14.0 °F 74% 29.85 in 5.0 mi West 15.0 mph 24.2 mph N/A Snow Light Snow
7:55 AM 21.2 °F 7.8 °F 14.0 °F 74% 29.85 in 5.0 mi WSW 15.0 mph 28.8 mph N/A Snow Light Snow
8:15 AM 21.2 °F 8.3 °F 12.2 °F 68% 29.86 in 7.0 mi West 13.8 mph 26.5 mph N/A Snow Light Snow
8:35 AM 21.2 °F 6.8 °F 12.2 °F 68% 29.86 in 10.0 mi West 17.3 mph 31.1 mph N/A Snow Light Snow
8:55 AM 21.2 °F 6.8 °F 12.2 °F 68% 29.86 in 10.0 mi West 17.3 mph 31.1 mph N/A Snow Light Snow
9:15 AM 23.0 °F 8.7 °F 12.2 °F 63% 29.86 in 10.0 mi West 18.4 mph 28.8 mph N/A Snow Light Snow
9:35 AM 23.0 °F 8.0 °F 12.2 °F 63% 29.87 in 10.0 mi WSW 20.7 mph 31.1 mph N/A   Overcast
9:55 AM 24.8 °F 9.6 °F 12.2 °F 59% 29.88 in 10.0 mi WSW 23.0 mph 34.5 mph N/A   Overcast
10:15 AM 24.8 °F 10.3 °F 12.2 °F 59% 29.88 in 10.0 mi WSW 20.7 mph 31.1 mph N/A   Mostly Cloudy
10:35 AM 26.6 °F 14.3 °F 12.2 °F 55% 29.89 in 10.0 mi West 16.1 mph 26.5 mph N/A   Mostly Cloudy
10:55 AM 26.6 °F 13.1 °F 12.2 °F 55% 29.89 in 10.0 mi West 19.6 mph 33.4 mph N/A   Scattered Clouds
11:15 AM 28.4 °F 16.2 °F 14.0 °F 55% 29.91 in 10.0 mi West 17.3 mph 26.5 mph N/A   Scattered Clouds
11:35 AM 28.4 °F 16.6 °F 14.0 °F 55% 29.92 in 10.0 mi West 16.1 mph 36.8 mph N/A   Scattered Clouds
11:55 AM 28.4 °F 14.7 °F 14.0 °F 55% 29.92 in 10.0 mi West 21.9 mph 36.8 mph N/A   Scattered Clouds
12:15 PM 28.4 °F 14.7 °F 12.2 °F 51% 29.93 in 10.0 mi West 21.9 mph 32.2 mph N/A   Scattered Clouds
12:35 PM 30.2 °F 17.8 °F 14.0 °F 51% 29.93 in 10.0 mi West 19.6 mph 29.9 mph N/A   Scattered Clouds
12:55 PM 30.2 °F 18.5 °F 14.0 °F 51% 29.94 in 10.0 mi West 17.3 mph 31.1 mph N/A   Clear
1:15 PM 32.0 °F 21.6 °F 14.0 °F 48% 29.95 in 10.0 mi West 15.0 mph 27.6 mph N/A   Clear
1:35 PM 32.0 °F 20.1 °F 12.2 °F 44% 29.95 in 10.0 mi West 19.6 mph 33.4 mph N/A   Clear
1:55 PM 32.0 °F 19.5 °F 12.2 °F 44% 29.96 in 10.0 mi West 21.9 mph 35.7 mph N/A   Clear
2:15 PM 32.0 °F 20.8 °F 12.2 °F 44% 29.95 in 10.0 mi West 17.3 mph 28.8 mph N/A   Clear
2:35 PM 32.0 °F 20.8 °F 14.0 °F 48% 29.96 in 10.0 mi West 17.3 mph 34.5 mph N/A   Clear
2:55 PM 32.0 °F 21.6 °F 14.0 °F 48% 29.97 in 10.0 mi West 15.0 mph 29.9 mph N/A   Clear
3:15 PM 32.0 °F 21.2 °F 14.0 °F 48% 29.97 in 10.0 mi West 16.1 mph 31.1 mph N/A   Clear
3:35 PM 33.8 °F 23.5 °F 14.0 °F 44% 29.97 in 10.0 mi WSW 16.1 mph 28.8 mph N/A   Clear
3:55 PM 32.0 °F 20.1 °F 14.0 °F 48% 29.98 in 10.0 mi West 19.6 mph 33.4 mph N/A   Clear
4:15 PM 33.8 °F 23.2 °F 14.0 °F 44% 29.98 in 10.0 mi WSW 17.3 mph 32.2 mph N/A   Clear
4:35 PM 33.8 °F 24.8 °F 12.2 °F 41% 29.98 in 10.0 mi West 12.7 mph 25.3 mph N/A   Clear
4:55 PM 33.8 °F 24.3 °F 14.0 °F 44% 29.99 in 10.0 mi West 13.8 mph 29.9 mph N/A   Clear
5:15 PM 33.8 °F 23.9 °F 14.0 °F 44% 29.99 in 10.0 mi West 15.0 mph 27.6 mph N/A   Clear
5:35 PM 33.8 °F 24.3 °F 14.0 °F 44% 29.99 in 10.0 mi West 13.8 mph 20.7 mph N/A   Clear
5:55 PM 32.0 °F 22.1 °F 12.2 °F 44% 30.00 in 10.0 mi West 13.8 mph 25.3 mph N/A   Clear
6:15 PM 32.0 °F 23.6 °F 14.0 °F 48% 30.00 in 10.0 mi West 10.4 mph 25.3 mph N/A   Clear
6:55 PM 32.0 °F 22.1 °F 14.0 °F 48% 30.01 in 10.0 mi WSW 13.8 mph 18.4 mph N/A   Clear
7:15 PM 32.0 °F 20.8 °F 14.0 °F 48% 30.02 in 10.0 mi West 17.3 mph 25.3 mph N/A   Clear
7:35 PM 32.0 °F 23.0 °F 15.8 °F 51% 30.02 in 10.0 mi West 11.5 mph 20.7 mph N/A   Clear
7:55 PM 32.0 °F 23.0 °F 15.8 °F 51% 30.03 in 10.0 mi West 11.5 mph 19.6 mph N/A   Scattered Clouds
8:15 PM 32.0 °F 21.6 °F 15.8 °F 51% 30.03 in 10.0 mi West 15.0 mph 24.2 mph N/A   Clear
8:35 PM 30.2 °F 19.8 °F 15.8 °F 55% 30.04 in 10.0 mi West 13.8 mph 23.0 mph N/A   Clear
8:55 PM 30.2 °F 19.3 °F 15.8 °F 55% 30.04 in 10.0 mi West 15.0 mph 23.0 mph N/A   Scattered Clouds
9:15 PM 30.2 °F 21.3 °F 15.8 °F 55% 30.05 in 10.0 mi West 10.4 mph 23.0 mph N/A   Clear
9:35 PM 30.2 °F 20.2 °F 14.0 °F 51% 30.05 in 10.0 mi West 12.7 mph 25.3 mph N/A   Scattered Clouds
9:55 PM 30.2 °F 21.9 °F 14.0 °F 51% 30.05 in 10.0 mi West 9.2 mph 21.9 mph N/A   Clear
10:15 PM 30.2 °F 21.3 °F 15.8 °F 55% 30.05 in 10.0 mi West 10.4 mph 18.4 mph N/A   Scattered Clouds
10:35 PM 30.2 °F 19.8 °F 15.8 °F 55% 30.05 in 10.0 mi West 13.8 mph 21.9 mph N/A   Scattered Clouds
10:55 PM 28.4 °F 17.5 °F 14.0 °F 55% 30.05 in 10.0 mi West 13.8 mph 26.5 mph N/A   Clear
11:15 PM 28.4 °F 18.0 °F 14.0 °F 55% 30.05 in 10.0 mi West 12.7 mph 18.4 mph N/A   Clear
11:35 PM 28.4 °F 17.5 °F 14.0 °F 55% 30.05 in 10.0 mi West 13.8 mph 20.7 mph N/A   Clear
11:55 PM 28.4 °F 18.5 °F 14.0 °F 55% 30.05 in 10.0 mi West 11.5 mph 19.6 mph N/A   Scattered Clouds